• MPC Preparation (Info)

  • MPEC 2010-Y13 : 2010 XX72

    The following Minor Planet Electronic Circular may be linked-to from your own Web pages, but must not otherwise be redistributed electronically.

    A form allowing access to any MPEC is at the bottom of this page.


    Read MPEC 2010-Y12 Read MPEC 2010-Y14


    M.P.E.C. 2010-Y13                                Issued 2010 Dec. 19, 05:04 UT
    
         The Minor Planet Electronic Circulars contain information on unusual
             minor planets and routine data on comets.  They are published
       on behalf of Commission 20 of the International Astronomical Union by the
              Minor Planet Center, Smithsonian Astrophysical Observatory,
                              Cambridge, MA 02138, U.S.A.
    
                 Prepared using the Tamkin Foundation Computer Network
    
                                  MPC@CFA.HARVARD.EDU
           URL https://www.minorplanetcenter.org/iau/mpc.html  ISSN 1523-6714
    
                                       2010 XX72
    
    Observations:
         K10X72X* C2010 12 15.29446 02 55 24.91 +26 34 13.9          19.8 VrEY013G96
         K10X72X  C2010 12 15.29503 02 55 24.78 +26 34 12.8          19.8 VrEY013G96
         K10X72X  C2010 12 15.29561 02 55 24.68 +26 34 11.5          19.8 VrEY013G96
         K10X72X  C2010 12 15.29617 02 55 24.60 +26 34 10.2          19.6 VrEY013G96
         K10X72X  C2010 12 15.33252 02 55 18.26 +26 32 46.5          19.0 VrEY013G96
         K10X72X  C2010 12 15.33310 02 55 18.15 +26 32 45.1          19.5 VrEY013G96
         K10X72X  C2010 12 15.33368 02 55 18.04 +26 32 43.6          19.7 VrEY013G96
         K10X72X  C2010 12 15.33426 02 55 17.90 +26 32 42.3          19.9 VrEY013G96
         K10X72X KC2010 12 15.81744 02 54 03.41 +26 14 45.7          20.2 RuEY013160
         K10X72X KC2010 12 15.82364 02 54 02.34 +26 14 32.0          20.5 RuEY013160
         K10X72X KC2010 12 15.82969 02 54 01.28 +26 14 19.6          20.4 RuEY013160
         K10X72X  C2010 12 16.16663 02 53 09.16 +26 02 06.8          19.8 VrEY013G96
         K10X72X  C2010 12 16.16755 02 53 08.98 +26 02 04.9          19.9 VrEY013G96
         K10X72X  C2010 12 16.16848 02 53 08.84 +26 02 02.9          19.9 VrEY013G96
    
    Observer details:
    160 Castelmartini.  Observers E. Prosperi, S. Prosperi.  Measurer E. Prosperi.
        0.35-m f/10 Schmidt-Cassegrain + CCD.
    G96 Mt. Lemmon Survey.  Observers A. R. Gibbs, J. P. Matthews, H. V. Sherman.
        Measurers J. D. Ahern, E. C. Beshore, A. Boattini, G. J. Garradd,
        A. R. Gibbs, A. D. Grauer, R. E. Hill, R. A. Kowalski, S. M. Larson,
        R. H. McNaught.  1.5-m reflector + CCD.
    
    Orbital elements:
    2010 XX72                                           PHA, Earth MOID = 0.0388 AU
    Epoch 2011 Feb. 8.0 TT = JDT 2455600.5                  MPC
    M 250.55790              (2000.0)            P               Q
    n   1.14339466     Peri.  333.75545     -0.29601702     +0.95199472
    a   0.9057436      Node   278.94424     -0.86189327     -0.30140145
    e   0.2804898      Incl.    4.52729     -0.41172068     -0.05350898
    P   0.86           H   21.8           G   0.15           U   9
    Residuals in seconds of arc
    101215 G96  0.1+  0.2-    101215 G96  0.3+  0.1+    101215 160  0.2-  0.5+
    101215 G96  0.3-  0.0     101215 G96  0.1+  0.1-    101216 G96  0.1+  0.0
    101215 G96  0.2-  0.1+    101215 G96  0.4-  0.0     101216 G96  0.2-  0.1+
    101215 G96  0.0   0.1+    101215 160  0.2+  0.3-    101216 G96  0.0   0.1+
    101215 G96  0.4+  0.1+    101215 160  0.1+  0.4-
    
    Ephemeris:
    2010 XX72                a,e,i = 0.91, 0.28, 5                   q = 0.6517
    Date    TT    R. A. (2000) Decl.     Delta      r     Elong.  Phase     V
    2010 11 19    05 08 30.7 +41 34 33   0.1800  1.1483   150.4    25.2    19.5
    ...
    2010 12 04    03 39 13.0 +34 09 38   0.1809  1.1592   162.0    15.2    19.2
    ...
    2010 12 12    03 05 27.2 +28 41 43   0.1963  1.1594   150.4    24.8    19.7
    ...
    2010 12 18    02 48 46.5 +24 57 02   0.2132  1.1569   140.7    32.6    20.1
    2010 12 19    02 46 38.3 +24 22 56   0.2163  1.1562   139.2    33.8    20.2
    2010 12 20    02 44 40.1 +23 49 53   0.2195  1.1556   137.6    35.0    20.3
    ...
    2010 12 26    02 35 59.3 +20 54 25   0.2403  1.1501   129.0    41.6    20.6
    ...
    2011 01 03    02 31 13.6 +17 58 25   0.2703  1.1394   119.1    49.0    21.1
    ...
    2011 01 18    02 36 20.3 +14 46 30   0.3265  1.1089   104.0    59.4    21.7
    
    Carl W. Hergenrother         (C) Copyright 2010 MPC           M.P.E.C. 2010-Y13
    

    Read MPEC 2010-Y12 Read MPEC 2010-Y14


    MPEC number:

    Enter an MPEC number in one of the following forms:

    • 1997-B01 (the full form)
    • J97B01 (the packed version of the full form)
    • B01 (the abbreviated form)